Location: C�mpuri de-Sus
(45.9500°N, 22.5500°E)
Time: 04:02:30
(UTC+00:00)

Cosmos 839 Rocket - Pass Details

Date: 29 May 2022
Orbit: 968 x 2085 km, 65.9° (Epoch: 06 July)

Event Time Altitude Azimuth Distance (km) Brightness Sun altitude
Rises 21:49:36 0° 326° (NNW) 3,678 8.1 -21.8°
Reaches altitude 10° 21:52:06 10° 331° (NNW) 2,760 7.4 -21.9°
Maximum altitude 21:58:20 58° 50° (NE) 1,250 4.7 -22.0°
Enters shadow 22:03:21 21° 124° (ESE) 2,420 5.7 -22.1°
